Location: Nantong Television Tower
(32.0188°N, 120.8512°E)
Time: 01:13:37
(UTC+08:00)

Vanguard 3 - Visible Passes

Search period start: 25 June 2017 00:00
Search period end: 05 July 2017 00:00
Orbit: 507 x 3266 km, 33.4° (Epoch: 23 June)

Date Brightness Start Highest point End Pass type
(mag) Time Alt. Az. Time Alt. Az. Time Alt. Az.
25 Jun 10.0 19:09:21 10° W 19:29:48 90° SSW 19:44:59 10° ESE visible
25 Jun 9.4 21:27:38 10° WNW 21:45:35 57° SSW 21:50:47 40° SSE visible
25 Jun 10.4 23:49:07 10° W 23:55:21 17° WSW 23:55:21 17° WSW visible
26 Jun 9.8 20:10:02 10° WNW 20:29:57 75° SSW 20:40:57 21° ESE visible
26 Jun 9.8 22:29:15 10° W 22:43:47 35° SW 22:45:31 34° SSW visible
27 Jun 9.6 21:10:57 10° WNW 21:29:09 53° SW 21:35:42 34° SSE visible
27 Jun 10.6 23:33:24 10° W 23:40:15 16° WSW 23:40:15 16° WSW visible
28 Jun 10.0 19:53:27 10° WNW 20:13:25 71° SSW 20:25:54 18° SE visible
28 Jun 10.0 22:12:47 10° W 22:27:20 32° SW 22:30:28 29° SSW visible
29 Jun 9.9 20:54:20 10° WNW 21:12:34 49° SW 21:20:42 28° SSE visible
29 Jun 10.7 23:18:03 10° W 23:24:49 14° SW 23:25:16 14° SW visible
30 Jun 10.1 19:36:58 10° WNW 19:56:47 66° SSW 20:10:57 14° SE visible
30 Jun 10.2 21:56:27 10° W 22:10:46 29° SW 22:15:32 24° SSW visible
01 Jul 10.2 20:37:50 10° WNW 20:55:54 45° SW 21:05:49 22° SSE visible
01 Jul 10.8 23:03:25 10° WSW 23:08:23 12° SW 23:10:23 12° SW visible
02 Jul 10.3 19:20:35 10° WNW 19:40:03 62° SSW 19:56:08 10° SE visible
02 Jul 10.5 21:40:18 10° W 21:54:09 26° SW 22:00:43 19° SSW visible
03 Jul 10.4 20:21:29 10° WNW 20:39:08 41° SW 20:51:04 16° SSE visible
04 Jul 10.5 19:04:20 10° WNW 19:23:14 57° SSW 19:39:59 10° SE visible
04 Jul 10.7 21:24:24 10° W 21:37:29 23° SW 21:46:03 14° SSW visible
